Time,TemperatureF,DewpointF,PressureIn,WindDirection,WindDirectionDegrees,WindSpeedMPH,WindSpeedGustMPH,Humidity,HourlyPrecipIn,Conditions,Clouds,dailyrainin,SolarRadiationWatts/m^2,SoftwareType,DateUTC
2013-01-20 00:08:00,34.6,34.1,30.32,North,0,1.0,1.0,98,0.00,,,0.00,0,Wunderground v.1.15,2013-01-20 08:08:00,
2013-01-20 00:18:00,34.6,34.3,30.32,North,0,0.0,1.0,99,0.00,,,0.00,0,Wunderground v.1.15,2013-01-20 08:18:00,
2013-01-20 00:28:00,34.4,34.1,30.32,North,0,0.0,0.0,99,0.00,,,0.00,0,Wunderground v.1.15,2013-01-20 08:28:00,
2013-01-20 00:38:00,34.3,34.0,30.33,North,0,0.0,0.0,99,0.00,,,0.00,0,Wunderground v.1.15,2013-01-20 08:38:00,
2013-01-20 00:48:00,34.4,34.1,30.33,North,1,0.0,0.0,99,0.00,,,0.00,0,Wunderground v.1.15,2013-01-20 08:48:00,
2013-01-20 00:58:00,34.6,34.3,30.33,North,0,0.0,0.0,99,0.00,,,0.00,0,Wunderground v.1.15,2013-01-20 08:58:00,
2013-01-20 01:12:00,34.4,34.1,30.32,North,0,0.0,0.0,99,0.00,,,0.00,0,Wunderground v.1.15,2013-01-20 09:12:00,
2013-01-20 01:18:00,34.1,33.8,30.33,North,0,0.0,0.0,99,0.00,,,0.00,0,Wunderground v.1.15,2013-01-20 09:18:00,
2013-01-20 01:28:00,33.7,33.4,30.33,North,0,0.0,0.0,99,0.00,,,0.00,0,Wunderground v.1.15,2013-01-20 09:28:00,
2013-01-20 01:43:00,33.7,33.4,30.33,North,0,0.0,0.0,99,0.00,,,0.00,0,Wunderground v.1.15,2013-01-20 09:43:00,
2013-01-20 01:48:00,33.8,33.5,30.33,North,0,0.0,0.0,99,0.00,,,0.00,0,Wunderground v.1.15,2013-01-20 09:48:00,
2013-01-20 02:03:00,34.7,34.4,30.33,North,0,0.0,0.0,99,0.00,,,0.00,0,Wunderground v.1.15,2013-01-20 10:03:00,
2013-01-20 02:09:00,34.6,34.3,30.33,North,0,0.0,0.0,99,0.00,,,0.00,0,Wunderground v.1.15,2013-01-20 10:09:00,
2013-01-20 02:17:00,34.1,33.8,30.34,North,0,0.0,0.0,99,0.00,,,0.00,0,Wunderground v.1.15,2013-01-20 10:17:00,
2013-01-20 02:27:00,34.1,33.8,30.34,North,0,0.0,0.0,99,0.00,,,0.00,0,Wunderground v.1.15,2013-01-20 10:27:00,
2013-01-20 02:37:00,34.3,34.0,30.34,North,0,0.0,0.0,99,0.00,,,0.00,0,Wunderground v.1.15,2013-01-20 10:37:00,
2013-01-20 02:52:00,33.8,33.5,30.34,North,0,0.0,0.0,99,0.00,,,0.00,0,Wunderground v.1.15,2013-01-20 10:52:00,
2013-01-20 03:02:00,33.7,33.4,30.33,North,0,0.0,0.0,99,0.00,,,0.00,0,Wunderground v.1.15,2013-01-20 11:02:00,
2013-01-20 03:08:00,33.7,33.4,30.33,North,0,0.0,0.0,99,0.00,,,0.00,0,Wunderground v.1.15,2013-01-20 11:08:00,
2013-01-20 03:22:00,33.5,33.2,30.34,North,0,0.0,0.0,99,0.00,,,0.00,0,Wunderground v.1.15,2013-01-20 11:22:00,
2013-01-20 03:28:00,33.4,33.1,30.34,North,0,0.0,0.0,99,0.00,,,0.00,0,Wunderground v.1.15,2013-01-20 11:28:00,
2013-01-20 03:38:00,33.2,33.0,30.33,North,0,0.0,0.0,99,0.00,,,0.00,0,Wunderground v.1.15,2013-01-20 11:38:00,
2013-01-20 03:48:00,33.1,32.9,30.34,North,0,0.0,1.0,99,0.00,,,0.00,0,Wunderground v.1.15,2013-01-20 11:48:00,
2013-01-20 03:58:00,33.1,32.9,30.34,North,0,0.0,1.0,99,0.00,,,0.00,0,Wunderground v.1.15,2013-01-20 11:58:00,
2013-01-20 04:08:00,33.2,33.0,30.33,North,0,0.0,0.0,99,0.00,,,0.00,0,Wunderground v.1.15,2013-01-20 12:08:00,
2013-01-20 04:18:00,33.1,32.9,30.33,North,0,0.0,1.0,99,0.00,,,0.00,0,Wunderground v.1.15,2013-01-20 12:18:00,
2013-01-20 04:33:00,33.1,32.9,30.33,North,0,0.0,1.0,99,0.00,,,0.00,0,Wunderground v.1.15,2013-01-20 12:33:00,
2013-01-20 04:38:00,33.1,32.9,30.33,North,0,0.0,1.0,99,0.00,,,0.00,0,Wunderground v.1.15,2013-01-20 12:38:00,
2013-01-20 04:48:00,32.9,32.7,30.33,North,0,0.0,0.0,99,0.00,,,0.00,0,Wunderground v.1.15,2013-01-20 12:48:00,
2013-01-20 04:58:00,33.1,32.9,30.33,North,0,0.0,1.0,99,0.00,,,0.00,0,Wunderground v.1.15,2013-01-20 12:58:00,
2013-01-20 05:08:00,33.1,32.9,30.32,North,0,0.0,1.0,99,0.00,,,0.00,0,Wunderground v.1.15,2013-01-20 13:08:00,
2013-01-20 05:17:00,33.2,33.0,30.32,North,0,0.0,0.0,99,0.00,,,0.00,0,Wunderground v.1.15,2013-01-20 13:17:00,
2013-01-20 05:27:00,33.1,32.9,30.32,North,0,0.0,1.0,99,0.00,,,0.00,0,Wunderground v.1.15,2013-01-20 13:27:00,
2013-01-20 05:38:00,33.2,33.0,30.32,North,0,0.0,0.0,99,0.00,,,0.00,0,Wunderground v.1.15,2013-01-20 13:38:00,
2013-01-20 05:48:00,32.8,32.6,30.32,North,0,1.0,1.0,99,0.00,,,0.00,0,Wunderground v.1.15,2013-01-20 13:48:00,
2013-01-20 05:58:00,32.4,32.2,30.32,North,0,1.0,1.0,99,0.00,,,0.00,0,Wunderground v.1.15,2013-01-20 13:58:00,
2013-01-20 06:08:00,32.2,32.0,30.31,NNE,17,1.0,2.0,99,0.00,,,0.00,0,Wunderground v.1.15,2013-01-20 14:08:00,
2013-01-20 06:18:00,32.4,32.2,30.31,NNE,17,1.0,2.0,99,0.00,,,0.00,0,Wunderground v.1.15,2013-01-20 14:18:00,
2013-01-20 06:28:00,32.7,32.5,30.31,NNE,17,0.0,1.0,99,0.00,,,0.00,0,Wunderground v.1.15,2013-01-20 14:28:00,
2013-01-20 06:48:00,32.8,32.6,30.31,NNE,17,0.0,0.0,99,0.00,,,0.00,0,Wunderground v.1.15,2013-01-20 14:48:00,
2013-01-20 06:58:00,32.8,32.6,30.31,NNE,17,0.0,0.0,99,0.00,,,0.00,0,Wunderground v.1.15,2013-01-20 14:58:00,
2013-01-20 07:08:00,32.8,32.6,30.31,NNE,17,0.0,0.0,99,0.00,,,0.00,0,Wunderground v.1.15,2013-01-20 15:08:00,
2013-01-20 07:18:00,32.8,32.6,30.31,NNE,17,0.0,1.0,99,0.00,,,0.00,0,Wunderground v.1.15,2013-01-20 15:18:00,
2013-01-20 07:28:00,32.9,32.7,30.31,NNE,17,0.0,1.0,99,0.00,,,0.00,0,Wunderground v.1.15,2013-01-20 15:28:00,
2013-01-20 07:39:00,32.9,32.7,30.31,NNE,17,0.0,0.0,99,0.00,,,0.00,0,Wunderground v.1.15,2013-01-20 15:39:00,
2013-01-20 07:49:00,32.8,32.6,30.32,NNE,18,1.0,1.0,99,0.00,,,0.00,5,Wunderground v.1.15,2013-01-20 15:49:00,
2013-01-20 07:59:00,32.9,32.7,30.32,NNE,18,0.0,1.0,99,0.00,,,0.00,5,Wunderground v.1.15,2013-01-20 15:59:00,
2013-01-20 08:13:00,33.2,33.0,30.32,NNE,17,0.0,0.0,99,0.00,,,0.00,12,Wunderground v.1.15,2013-01-20 16:13:00,
2013-01-20 08:22:00,33.7,33.7,30.32,NNE,17,0.0,0.0,100,0.00,,,0.00,21,Wunderground v.1.15,2013-01-20 16:22:00,
2013-01-20 08:27:00,33.8,33.8,30.32,NNE,17,0.0,0.0,100,0.00,,,0.00,25,Wunderground v.1.15,2013-01-20 16:27:00,
2013-01-20 08:38:00,34.1,34.1,30.32,NNE,17,0.0,0.0,100,0.00,,,0.00,26,Wunderground v.1.15,2013-01-20 16:38:00,
2013-01-20 08:48:00,34.6,34.6,30.33,NNE,17,0.0,0.0,100,0.00,,,0.00,30,Wunderground v.1.15,2013-01-20 16:48:00,
2013-01-20 08:58:00,34.7,34.7,30.33,NNE,17,0.0,1.0,100,0.00,,,0.00,44,Wunderground v.1.15,2013-01-20 16:58:00,
2013-01-20 09:08:00,34.9,34.9,30.33,NNE,17,0.0,0.0,100,0.00,,,0.00,53,Wunderground v.1.15,2013-01-20 17:08:00,
2013-01-20 09:18:00,34.7,34.7,30.33,NNE,17,0.0,2.0,100,0.00,,,0.00,65,Wunderground v.1.15,2013-01-20 17:18:00,
2013-01-20 09:28:00,34.6,34.6,30.33,NNE,18,1.0,1.0,100,0.00,,,0.00,77,Wunderground v.1.15,2013-01-20 17:28:00,
2013-01-20 09:42:00,35.2,35.2,30.33,NNE,17,0.0,0.0,100,0.00,,,0.00,91,Wunderground v.1.15,2013-01-20 17:42:00,
2013-01-20 09:48:00,35.6,35.6,30.33,NNE,17,0.0,0.0,100,0.00,,,0.00,99,Wunderground v.1.15,2013-01-20 17:48:00,
2013-01-20 10:02:00,36.3,36.3,30.33,NNE,17,0.0,0.0,100,0.00,,,0.00,84,Wunderground v.1.15,2013-01-20 18:02:00,
2013-01-20 10:08:00,36.6,36.6,30.33,NNW,343,0.0,0.0,100,0.00,,,0.00,97,Wunderground v.1.15,2013-01-20 18:08:00,
2013-01-20 10:18:00,36.6,36.6,30.33,NNW,333,0.0,1.0,100,0.00,,,0.00,100,Wunderground v.1.15,2013-01-20 18:18:00,
2013-01-20 10:28:00,36.9,36.9,30.33,NW,305,0.0,0.0,100,0.00,,,0.00,121,Wunderground v.1.15,2013-01-20 18:28:00,
2013-01-20 10:43:00,37.0,37.0,30.33,NW,312,1.0,1.0,100,0.00,,,0.00,116,Wunderground v.1.15,2013-01-20 18:43:00,
2013-01-20 10:49:00,36.8,36.8,30.33,WNW,302,2.0,2.0,100,0.00,,,0.00,102,Wunderground v.1.15,2013-01-20 18:49:00,
2013-01-20 10:58:00,36.9,36.9,30.33,NW,304,1.0,1.0,100,0.00,,,0.00,95,Wunderground v.1.15,2013-01-20 18:58:00,
2013-01-20 11:08:00,36.9,36.6,30.32,NW,305,0.0,1.0,99,0.00,,,0.00,116,Wunderground v.1.15,2013-01-20 19:08:00,
2013-01-20 11:17:00,37.2,36.9,30.32,NW,313,0.0,0.0,99,0.00,,,0.00,141,Wunderground v.1.15,2013-01-20 19:17:00,
2013-01-20 11:27:00,37.2,36.9,30.32,NW,318,0.0,0.0,99,0.00,,,0.00,114,Wunderground v.1.15,2013-01-20 19:27:00,
2013-01-20 11:42:00,37.0,36.5,30.31,WSW,244,1.0,2.0,98,0.00,,,0.00,387,Wunderground v.1.15,2013-01-20 19:42:00,
2013-01-20 11:48:00,37.6,36.8,30.30,SSW,195,1.0,2.0,97,0.00,,,0.00,370,Wunderground v.1.15,2013-01-20 19:48:00,
2013-01-20 11:58:00,38.6,37.3,30.30,NNW,333,0.0,2.0,95,0.00,,,0.00,352,Wunderground v.1.15,2013-01-20 19:58:00,
2013-01-20 12:08:00,39.2,37.1,30.30,NNW,333,0.0,0.0,92,0.00,,,0.00,384,Wunderground v.1.15,2013-01-20 20:08:00,
2013-01-20 12:18:00,39.6,36.6,30.29,NNW,332,1.0,3.0,89,0.00,,,0.00,296,Wunderground v.1.15,2013-01-20 20:18:00,
2013-01-20 12:28:00,40.1,36.2,30.29,NW,304,2.0,2.0,86,0.00,,,0.00,178,Wunderground v.1.15,2013-01-20 20:28:00,
2013-01-20 12:38:00,40.1,36.8,30.28,WNW,296,3.0,7.0,88,0.00,,,0.00,357,Wunderground v.1.15,2013-01-20 20:38:00,
2013-01-20 12:48:00,39.9,36.6,30.27,NNW,333,4.0,8.0,88,0.00,,,0.00,375,Wunderground v.1.15,2013-01-20 20:48:00,
2013-01-20 12:58:00,39.6,36.0,30.27,NW,318,5.0,5.0,87,0.00,,,0.00,290,Wunderground v.1.15,2013-01-20 20:58:00,
2013-01-20 13:08:00,39.6,36.3,30.27,NW,312,4.0,4.0,88,0.00,,,0.00,341,Wunderground v.1.15,2013-01-20 21:08:00,
2013-01-20 13:18:00,40.1,36.5,30.26,NW,315,3.0,5.0,87,0.00,,,0.00,345,Wunderground v.1.15,2013-01-20 21:18:00,
2013-01-20 13:28:00,40.2,36.3,30.26,NW,305,4.0,4.0,86,0.00,,,0.00,331,Wunderground v.1.15,2013-01-20 21:28:00,
2013-01-20 13:38:00,40.6,36.1,30.26,WNW,289,2.0,3.0,84,0.00,,,0.00,304,Wunderground v.1.15,2013-01-20 21:38:00,
2013-01-20 13:53:00,40.5,36.3,30.25,WSW,250,2.0,2.0,85,0.00,,,0.00,139,Wunderground v.1.15,2013-01-20 21:53:00,
2013-01-20 14:03:00,40.1,35.7,30.25,South,185,1.0,1.0,84,0.00,,,0.00,118,Wunderground v.1.15,2013-01-20 22:03:00,
2013-01-20 14:09:00,39.9,35.5,30.25,South,186,0.0,1.0,84,0.00,,,0.00,139,Wunderground v.1.15,2013-01-20 22:09:00,
2013-01-20 14:17:00,40.5,35.7,30.24,South,186,1.0,2.0,83,0.00,,,0.00,267,Wunderground v.1.15,2013-01-20 22:17:00,
2013-01-20 14:27:00,40.5,35.7,30.24,SSE,160,1.0,1.0,83,0.00,,,0.00,253,Wunderground v.1.15,2013-01-20 22:27:00,
2013-01-20 14:42:00,39.6,35.5,30.24,SE,130,2.0,4.0,85,0.00,,,0.00,227,Wunderground v.1.15,2013-01-20 22:42:00,
2013-01-20 14:47:00,39.6,35.5,30.24,SE,128,2.0,4.0,85,0.00,,,0.00,216,Wunderground v.1.15,2013-01-20 22:47:00,
2013-01-20 14:58:00,39.5,35.4,30.24,SE,124,2.0,5.0,85,0.00,,,0.00,199,Wunderground v.1.15,2013-01-20 22:58:00,
2013-01-20 15:08:00,39.8,35.7,30.24,SE,124,2.0,2.0,85,0.00,,,0.00,181,Wunderground v.1.15,2013-01-20 23:08:00,
2013-01-20 15:18:00,40.3,35.8,30.24,ESE,123,1.0,1.0,84,0.00,,,0.00,162,Wunderground v.1.15,2013-01-20 23:18:00,
2013-01-20 15:32:00,40.9,35.8,30.24,ESE,123,0.0,0.0,82,0.00,,,0.00,134,Wunderground v.1.15,2013-01-20 23:32:00,
2013-01-20 15:38:00,41.3,35.9,30.24,ESE,123,0.0,0.0,81,0.00,,,0.00,121,Wunderground v.1.15,2013-01-20 23:38:00,
2013-01-20 15:48:00,41.6,36.2,30.24,ESE,123,0.0,0.0,81,0.00,,,0.00,100,Wunderground v.1.15,2013-01-20 23:48:00,
2013-01-20 16:03:00,41.5,36.1,30.24,ESE,123,0.0,1.0,81,0.00,,,0.00,33,Wunderground v.1.15,2013-01-21 00:03:00,
2013-01-20 16:08:00,41.2,35.8,30.24,ESE,123,0.0,1.0,81,0.00,,,0.00,26,Wunderground v.1.15,2013-01-21 00:08:00,
2013-01-20 16:18:00,40.6,35.8,30.24,ESE,120,0.0,2.0,83,0.00,,,0.00,23,Wunderground v.1.15,2013-01-21 00:18:00,
2013-01-20 16:28:00,40.5,36.0,30.24,ESE,119,0.0,1.0,84,0.00,,,0.00,19,Wunderground v.1.15,2013-01-21 00:28:00,
2013-01-20 16:38:00,40.1,36.0,30.24,SE,124,0.0,0.0,85,0.00,,,0.00,16,Wunderground v.1.15,2013-01-21 00:38:00,
2013-01-20 16:48:00,39.5,35.7,30.24,SE,124,0.0,1.0,86,0.00,,,0.00,9,Wunderground v.1.15,2013-01-21 00:48:00,
2013-01-20 16:58:00,38.9,35.4,30.24,SE,124,0.0,0.0,87,0.00,,,0.00,7,Wunderground v.1.15,2013-01-21 00:58:00,
2013-01-20 17:09:00,38.5,35.5,30.23,SE,124,0.0,0.0,89,0.00,,,0.00,0,Wunderground v.1.15,2013-01-21 01:09:00,
2013-01-20 17:22:00,38.0,35.0,30.23,SE,124,0.0,0.0,89,0.00,,,0.00,0,Wunderground v.1.15,2013-01-21 01:22:00,
2013-01-20 17:28:00,37.8,35.1,30.23,ESE,123,0.0,0.0,90,0.00,,,0.00,0,Wunderground v.1.15,2013-01-21 01:28:00,
2013-01-20 17:37:00,37.6,35.2,30.23,SE,124,0.0,0.0,91,0.00,,,0.00,0,Wunderground v.1.15,2013-01-21 01:37:00,
2013-01-20 17:48:00,37.5,35.1,30.22,SE,124,0.0,0.0,91,0.00,,,0.00,0,Wunderground v.1.15,2013-01-21 01:48:00,
2013-01-20 17:58:00,37.3,35.2,30.22,SE,124,0.0,0.0,92,0.00,,,0.00,0,Wunderground v.1.15,2013-01-21 01:58:00,
2013-01-20 18:08:00,37.2,35.1,30.22,SE,124,0.0,0.0,92,0.00,,,0.00,0,Wunderground v.1.15,2013-01-21 02:08:00,
2013-01-20 18:18:00,37.2,35.1,30.22,SE,124,0.0,0.0,92,0.00,,,0.00,0,Wunderground v.1.15,2013-01-21 02:18:00,
2013-01-20 18:28:00,37.0,34.9,30.22,SE,124,0.0,0.0,92,0.00,,,0.00,0,Wunderground v.1.15,2013-01-21 02:28:00,
2013-01-20 18:42:00,36.6,34.5,30.22,SE,124,0.0,0.0,92,0.00,,,0.00,0,Wunderground v.1.15,2013-01-21 02:42:00,
2013-01-20 18:48:00,36.5,34.7,30.22,SE,124,0.0,0.0,93,0.00,,,0.00,0,Wunderground v.1.15,2013-01-21 02:48:00,
2013-01-20 18:58:00,36.3,34.5,30.22,SE,124,0.0,0.0,93,0.00,,,0.00,0,Wunderground v.1.15,2013-01-21 02:58:00,
2013-01-20 19:08:00,35.9,34.1,30.21,SE,124,0.0,0.0,93,0.00,,,0.00,0,Wunderground v.1.15,2013-01-21 03:08:00,
2013-01-20 19:18:00,35.8,34.2,30.21,SE,124,0.0,0.0,94,0.00,,,0.00,0,Wunderground v.1.15,2013-01-21 03:18:00,
2013-01-20 19:28:00,35.5,33.9,30.21,SE,124,0.0,0.0,94,0.00,,,0.00,0,Wunderground v.1.15,2013-01-21 03:28:00,
2013-01-20 19:38:00,35.2,33.6,30.21,SE,124,0.0,0.0,94,0.00,,,0.00,0,Wunderground v.1.15,2013-01-21 03:38:00,
2013-01-20 19:48:00,35.5,34.2,30.21,SE,124,0.0,0.0,95,0.00,,,0.00,0,Wunderground v.1.15,2013-01-21 03:48:00,
2013-01-20 19:58:00,36.9,35.9,30.21,NW,313,1.0,1.0,96,0.00,,,0.00,0,Wunderground v.1.15,2013-01-21 03:58:00,
2013-01-20 20:09:00,37.3,36.3,30.21,NW,312,1.0,1.0,96,0.00,,,0.00,0,Wunderground v.1.15,2013-01-21 04:09:00,
2013-01-20 20:22:00,37.3,36.5,30.21,NNW,333,0.0,0.0,97,0.00,,,0.00,0,Wunderground v.1.15,2013-01-21 04:22:00,
2013-01-20 20:27:00,37.5,36.7,30.21,NNW,335,0.0,0.0,97,0.00,,,0.00,0,Wunderground v.1.15,2013-01-21 04:27:00,
2013-01-20 20:37:00,37.8,37.0,30.22,NNW,335,0.0,0.0,97,0.00,,,0.00,0,Wunderground v.1.15,2013-01-21 04:37:00,
2013-01-20 20:47:00,37.9,37.1,30.21,NNW,333,0.0,2.0,97,0.00,,,0.00,0,Wunderground v.1.15,2013-01-21 04:47:00,
2013-01-20 20:58:00,38.0,37.2,30.21,NW,322,1.0,1.0,97,0.00,,,0.00,0,Wunderground v.1.15,2013-01-21 04:58:00,
2013-01-20 21:08:00,37.9,37.1,30.21,NW,322,0.0,1.0,97,0.00,,,0.00,0,Wunderground v.1.15,2013-01-21 05:08:00,
2013-01-20 21:12:00,37.9,37.1,30.21,NW,322,0.0,0.0,97,0.00,,,0.00,0,Wunderground v.1.15,2013-01-21 05:12:00,
2013-01-20 21:22:00,37.9,37.1,30.21,NW,322,0.0,0.0,97,0.00,,,0.00,0,Wunderground v.1.15,2013-01-21 05:22:00,
2013-01-20 21:28:00,37.9,37.1,30.21,NW,322,0.0,0.0,97,0.00,,,0.00,0,Wunderground v.1.15,2013-01-21 05:28:00,
2013-01-20 21:38:00,37.9,37.1,30.21,NW,322,0.0,0.0,97,0.00,,,0.00,0,Wunderground v.1.15,2013-01-21 05:38:00,
2013-01-20 21:52:00,37.8,37.0,30.21,NW,322,0.0,0.0,97,0.00,,,0.00,0,Wunderground v.1.15,2013-01-21 05:52:00,
2013-01-20 21:58:00,37.5,36.7,30.21,NW,322,0.0,1.0,97,0.00,,,0.00,0,Wunderground v.1.15,2013-01-21 05:58:00,
2013-01-20 22:08:00,36.9,36.1,30.21,NW,322,0.0,0.0,97,0.00,,,0.00,0,Wunderground v.1.15,2013-01-21 06:08:00,
2013-01-20 22:18:00,36.6,35.8,30.21,NW,322,0.0,0.0,97,0.00,,,0.00,0,Wunderground v.1.15,2013-01-21 06:18:00,
2013-01-20 22:28:00,36.5,35.7,30.21,NW,322,0.0,0.0,97,0.00,,,0.00,0,Wunderground v.1.15,2013-01-21 06:28:00,
2013-01-20 22:43:00,36.3,35.8,30.21,NW,322,0.0,0.0,98,0.00,,,0.00,0,Wunderground v.1.15,2013-01-21 06:43:00,
2013-01-20 22:48:00,36.2,35.7,30.21,NW,322,0.0,0.0,98,0.00,,,0.00,0,Wunderground v.1.15,2013-01-21 06:48:00,
2013-01-20 22:58:00,36.2,35.7,30.21,NW,322,0.0,0.0,98,0.00,,,0.00,0,Wunderground v.1.15,2013-01-21 06:58:00,
2013-01-20 23:19:00,36.0,35.5,30.21,NW,322,0.0,0.0,98,0.00,,,0.00,0,Wunderground v.1.15,2013-01-21 07:19:00,
2013-01-20 23:32:00,36.9,36.4,30.21,WNW,282,1.0,5.0,98,0.00,,,0.00,0,Wunderground v.1.15,2013-01-21 07:32:00,
2013-01-20 23:37:00,37.3,37.0,30.21,WNW,301,2.0,2.0,99,0.00,,,0.00,0,Wunderground v.1.15,2013-01-21 07:37:00,
2013-01-20 23:47:00,37.5,37.0,30.21,WNW,299,0.0,0.0,98,0.00,,,0.00,0,Wunderground v.1.15,2013-01-21 07:47:00,
2013-01-20 23:58:00,37.0,36.5,30.21,WNW,299,0.0,0.0,98,0.00,,,0.00,0,Wunderground v.1.15,2013-01-21 07:58:00,